This is the latest recevied weather packets stored in our database for station/object LY3FF-10. If no packets are shown the sender has not sent any weather packets the latest 10 day(s).
| Time | Temp. | Humidity | Pressure | Rain* | Wind** | Luminosity | Snow |
|---|---|---|---|---|---|---|---|
| 1777886137 | 25° C | 23% | 990 hPa | - | - | - | - |
| 1777885402 | 25.56° C | 24% | 990.1 hPa | - | - | - | - |
| 1777884538 | 24.44° C | 27% | 990.1 hPa | - | - | - | - |
| 1777883767 | 24.44° C | 28% | 990.2 hPa | - | - | - | - |
| 1777882922 | 23.89° C | 30% | 990.3 hPa | - | - | - | - |
| 1777882097 | 22.78° C | 32% | 990.2 hPa | - | - | - | - |
| 1777881347 | 22.22° C | 32% | 990.2 hPa | - | - | - | - |
| 1777879697 | 20.56° C | 35% | 990.4 hPa | - | - | - | - |
| 1777878894 | 20° C | 36% | 990.5 hPa | - | - | - | - |
| 1777878077 | 19.44° C | 36% | 990.6 hPa | - | - | - | - |
| 1777877197 | 18.33° C | 37% | 990.7 hPa | - | - | - | - |
| 1777876397 | 18.33° C | 37% | 990.7 hPa | - | - | - | - |
| 1777875562 | 17.78° C | 38% | 990.6 hPa | - | - | - | - |
| 1777874812 | 17.22° C | 38% | 990.6 hPa | - | - | - | - |
| 1777873922 | 16.67° C | 38% | 990.5 hPa | - | - | - | - |
| 1777873067 | 16.11° C | 39% | 990.5 hPa | - | - | - | - |
| 1777872249 | 15.56° C | 39% | 990.5 hPa | - | - | - | - |
| 1777871389 | 15° C | 39% | 990.5 hPa | - | - | - | - |
| 1777870662 | 15° C | 40% | 990.6 hPa | - | - | - | - |
| 1777869894 | 14.44° C | 40% | 990.7 hPa | - | - | - | - |
| 1777869057 | 14.44° C | 40% | 990.7 hPa | - | - | - | - |
| 1777868307 | 13.89° C | 41% | 990.7 hPa | - | - | - | - |
| 1777867582 | 13.33° C | 41% | 990.7 hPa | - | - | - | - |
| 1777866767 | 13.33° C | 41% | 990.7 hPa | - | - | - | - |
| 1777865907 | 13.33° C | 41% | 990.7 hPa | - | - | - | - |
* Rain since midnight (hover to see other rain measurements)
** Current wind speed in m/s (hover to see current wind gust speed)